owner,sensor,date,latitude,longitude,vertical_datum,wind_speed,wind_to_direction,wind_speed_of_gust,qcFlag 
ENP,ioos.station.NOAA.NDBC:WRBF1:1,2015-01-01T00:00:00Z,25.0720,-80.7350,1.0,1.0,60.0,-9999.0,'1111122,1111122,1111122' 
ENP,ioos.station.NOAA.NDBC:WRBF1:1,2015-01-01T01:00:00Z,25.0720,-80.7350,1.0,4.1,40.0,-9999.0,'1111122,1111122,1111122' 
ENP,ioos.station.NOAA.NDBC:WRBF1:1,2015-01-01T02:00:00Z,25.0720,-80.7350,1.0,0.5,110.0,-9999.0,'1111122,1111122,1111122' 
ENP,ioos.station.NOAA.NDBC:WRBF1:1,2015-01-01T03:00:00Z,25.0720,-80.7350,1.0,2.1,10.0,-9999.0,'1111122,1111122,1111122' 
ENP,ioos.station.NOAA.NDBC:WRBF1:1,2015-01-01T04:00:00Z,25.0720,-80.7350,1.0,4.1,10.0,-9999.0,'1111122,1111122,1111122' 
ENP,ioos.station.NOAA.NDBC:WRBF1:1,2015-01-05T09:00:00Z,25.0720,-80.7350,1.0,2.1,90.0,-9999.0,'1111122,1111122,1111122' 
ENP,ioos.station.NOAA.NDBC:WRBF1:1,2015-01-05T10:00:00Z,25.0720,-80.7350,1.0,2.6,90.0,-9999.0,'1111122,1111122,1111122' 
ENP,ioos.station.NOAA.NDBC:WRBF1:1,2015-01-05T11:00:00Z,25.0720,-80.7350,1.0,2.6,70.0,-9999.0,'1111122,1111122,1111122' 
ENP,ioos.station.NOAA.NDBC:WRBF1:1,2015-01-05T12:00:00Z,25.0720,-80.7350,1.0,2.6,50.0,-9999.0,'1111122,1111122,1111122' 
ENP,ioos.station.NOAA.NDBC:WRBF1:1,2015-01-05T13:00:00Z,25.0720,-80.7350,1.0,3.1,30.0,-9999.0,'1111122,1111122,1111122' 
ENP,ioos.station.NOAA.NDBC:WRBF1:1,2015-01-05T15:00:00Z,25.0720,-80.7350,1.0,2.6,40.0,-9999.0,'1111122,1111122,1111122' 
ENP,ioos.station.NOAA.NDBC:WRBF1:1,2015-01-05T16:00:00Z,25.0720,-80.7350,1.0,2.6,100.0,-9999.0,'1111122,1111122,1111122' 
ENP,ioos.station.NOAA.NDBC:WRBF1:1,2015-01-05T17:00:00Z,25.0720,-80.7350,1.0,3.1,90.0,-9999.0,'1111122,1111122,1111122' 
ENP,ioos.station.NOAA.NDBC:WRBF1:1,2015-01-05T18:00:00Z,25.0720,-80.7350,1.0,2.6,90.0,-9999.0,'1111122,1111122,1111122' 
ENP,ioos.station.NOAA.NDBC:WRBF1:1,2015-01-05T19:00:00Z,25.0720,-80.7350,1.0,3.1,70.0,-9999.0,'1111122,1111122,1111122' 
ENP,ioos.station.NOAA.NDBC:WRBF1:1,2015-01-05T20:00:00Z,25.0720,-80.7350,1.0,3.1,70.0,-9999.0,'1111122,1111122,1111122' 
ENP,ioos.station.NOAA.NDBC:WRBF1:1,2015-01-05T21:00:00Z,25.0720,-80.7350,1.0,3.1,80.0,-9999.0,'1111122,1111122,1111122' 
ENP,ioos.station.NOAA.NDBC:WRBF1:1,2015-01-05T22:00:00Z,25.0720,-80.7350,1.0,3.6,80.0,-9999.0,'1111122,1111122,1111122' 
ENP,ioos.station.NOAA.NDBC:WRBF1:1,2015-01-05T23:00:00Z,25.0720,-80.7350,1.0,4.1,60.0,-9999.0,'1111122,1111122,1111122' 
ENP,ioos.station.NOAA.NDBC:WRBF1:1,2015-01-06T00:00:00Z,25.0720,-80.7350,1.0,4.6,60.0,-9999.0,'1111122,1111122,1111122' 
ENP,ioos.station.NOAA.NDBC:WRBF1:1,2015-01-06T01:00:00Z,25.0720,-80.7350,1.0,5.1,50.0,-9999.0,'1111122,1111122,1111122' 
ENP,ioos.station.NOAA.NDBC:WRBF1:1,2015-01-06T02:00:00Z,25.0720,-80.7350,1.0,6.7,30.0,-9999.0,'1111122,1111122,1111122' 
ENP,ioos.station.NOAA.NDBC:WRBF1:1,2015-01-06T03:00:00Z,25.0720,-80.7350,1.0,7.2,30.0,-9999.0,'1111122,1111122,1111122' 
ENP,ioos.station.NOAA.NDBC:WRBF1:1,2015-01-06T04:00:00Z,25.0720,-80.7350,1.0,6.7,20.0,-9999.0,'1111122,1111122,1111122' 
ENP,ioos.station.NOAA.NDBC:WRBF1:1,2015-01-06T05:00:00Z,25.0720,-80.7350,1.0,5.7,20.0,-9999.0,'1111122,1111122,1111122' 
ENP,ioos.station.NOAA.NDBC:WRBF1:1,2015-01-06T06:00:00Z,25.0720,-80.7350,1.0,5.7,40.0,-9999.0,'1111122,1111122,1111122' 
ENP,ioos.station.NOAA.NDBC:WRBF1:1,2015-01-06T07:00:00Z,25.0720,-80.7350,1.0,6.7,50.0,-9999.0,'1111122,1111122,1111122' 
ENP,ioos.station.NOAA.NDBC:WRBF1:1,2015-01-06T08:00:00Z,25.0720,-80.7350,1.0,6.2,50.0,-9999.0,'1111122,1111122,1111122' 
ENP,ioos.station.NOAA.NDBC:WRBF1:1,2015-01-06T09:00:00Z,25.0720,-80.7350,1.0,5.1,20.0,-9999.0,'1111122,1111122,1111122' 
ENP,ioos.station.NOAA.NDBC:WRBF1:1,2015-01-06T10:00:00Z,25.0720,-80.7350,1.0,5.1,10.0,-9999.0,'1111122,1111122,1111122' 
ENP,ioos.station.NOAA.NDBC:WRBF1:1,2015-01-06T11:00:00Z,25.0720,-80.7350,1.0,5.7,10.0,-9999.0,'1111122,1111122,1111122' 
ENP,ioos.station.NOAA.NDBC:WRBF1:1,2015-01-06T12:00:00Z,25.0720,-80.7350,1.0,5.7,10.0,-9999.0,'1111122,1111122,1111122' 
ENP,ioos.station.NOAA.NDBC:WRBF1:1,2015-01-06T13:00:00Z,25.0720,-80.7350,1.0,6.2,10.0,-9999.0,'1111122,1111122,1111122' 
ENP,ioos.station.NOAA.NDBC:WRBF1:1,2015-01-06T14:00:00Z,25.0720,-80.7350,1.0,5.7,20.0,-9999.0,'1111122,1111122,1111122' 
ENP,ioos.station.NOAA.NDBC:WRBF1:1,2015-01-06T15:00:00Z,25.0720,-80.7350,1.0,5.1,30.0,-9999.0,'1111122,1111122,1111122' 
ENP,ioos.station.NOAA.NDBC:WRBF1:1,2015-01-06T16:00:00Z,25.0720,-80.7350,1.0,5.1,50.0,-9999.0,'1111122,1111122,1111122' 
ENP,ioos.station.NOAA.NDBC:WRBF1:1,2015-01-06T17:00:00Z,25.0720,-80.7350,1.0,4.6,60.0,-9999.0,'1111122,1111122,1111122' 
ENP,ioos.station.NOAA.NDBC:WRBF1:1,2015-01-06T18:00:00Z,25.0720,-80.7350,1.0,3.6,80.0,-9999.0,'1111122,1111122,1111122' 
ENP,ioos.station.NOAA.NDBC:WRBF1:1,2015-01-06T19:00:00Z,25.0720,-80.7350,1.0,3.6,80.0,-9999.0,'1111122,1111122,1111122' 
ENP,ioos.station.NOAA.NDBC:WRBF1:1,2015-01-06T20:00:00Z,25.0720,-80.7350,1.0,3.1,80.0,-9999.0,'1111122,1111122,1111122' 
ENP,ioos.station.NOAA.NDBC:WRBF1:1,2015-01-06T21:00:00Z,25.0720,-80.7350,1.0,3.6,90.0,-9999.0,'1111122,1111122,1111122' 
ENP,ioos.station.NOAA.NDBC:WRBF1:1,2015-01-06T22:00:00Z,25.0720,-80.7350,1.0,3.6,90.0,-9999.0,'1111122,1111122,1111122' 
ENP,ioos.station.NOAA.NDBC:WRBF1:1,2015-01-06T23:00:00Z,25.0720,-80.7350,1.0,2.6,90.0,-9999.0,'1111122,1111122,1111122' 
ENP,ioos.station.NOAA.NDBC:WRBF1:1,2015-01-07T00:00:00Z,25.0720,-80.7350,1.0,3.1,80.0,-9999.0,'1111122,1111122,1111122' 
ENP,ioos.station.NOAA.NDBC:WRBF1:1,2015-01-07T01:00:00Z,25.0720,-80.7350,1.0,2.6,80.0,-9999.0,'1111122,1111122,1111122' 
ENP,ioos.station.NOAA.NDBC:WRBF1:1,2015-01-07T02:00:00Z,25.0720,-80.7350,1.0,2.1,60.0,-9999.0,'1111122,1111122,1111122' 
ENP,ioos.station.NOAA.NDBC:WRBF1:1,2015-01-07T03:00:00Z,25.0720,-80.7350,1.0,5.7,330.0,-9999.0,'1111122,1111122,1111122' 
ENP,ioos.station.NOAA.NDBC:WRBF1:1,2015-01-07T04:00:00Z,25.0720,-80.7350,1.0,4.6,330.0,-9999.0,'1111122,1111122,1111122' 
ENP,ioos.station.NOAA.NDBC:WRBF1:1,2015-01-07T05:00:00Z,25.0720,-80.7350,1.0,3.6,330.0,-9999.0,'1111122,1111122,1111122' 
ENP,ioos.station.NOAA.NDBC:WRBF1:1,2015-01-07T06:00:00Z,25.0720,-80.7350,1.0,3.6,330.0,-9999.0,'1111122,1111122,1111122' 
ENP,ioos.station.NOAA.NDBC:WRBF1:1,2015-01-07T07:00:00Z,25.0720,-80.7350,1.0,3.1,320.0,-9999.0,'1111122,1111122,1111122' 
ENP,ioos.station.NOAA.NDBC:WRBF1:1,2015-01-07T08:00:00Z,25.0720,-80.7350,1.0,4.1,330.0,-9999.0,'1111122,1111122,1111122' 
ENP,ioos.station.NOAA.NDBC:WRBF1:1,2015-01-07T09:00:00Z,25.0720,-80.7350,1.0,3.1,320.0,-9999.0,'1111122,1111122,1111122' 
ENP,ioos.station.NOAA.NDBC:WRBF1:1,2015-01-07T10:00:00Z,25.0720,-80.7350,1.0,4.1,330.0,-9999.0,'1111122,1111122,1111122' 
ENP,ioos.station.NOAA.NDBC:WRBF1:1,2015-01-07T11:00:00Z,25.0720,-80.7350,1.0,4.6,340.0,-9999.0,'1111122,1111122,1111122' 
ENP,ioos.station.NOAA.NDBC:WRBF1:1,2015-01-07T12:00:00Z,25.0720,-80.7350,1.0,4.6,360.0,-9999.0,'1111122,1111122,1111122' 
ENP,ioos.station.NOAA.NDBC:WRBF1:1,2015-01-07T13:00:00Z,25.0720,-80.7350,1.0,4.1,350.0,-9999.0,'1111122,1111122,1111122' 
ENP,ioos.station.NOAA.NDBC:WRBF1:1,2015-01-07T14:00:00Z,25.0720,-80.7350,1.0,3.6,360.0,-9999.0,'1111122,1111122,1111122' 
ENP,ioos.station.NOAA.NDBC:WRBF1:1,2015-01-07T15:00:00Z,25.0720,-80.7350,1.0,4.6,350.0,-9999.0,'1111122,1111122,1111122' 
ENP,ioos.station.NOAA.NDBC:WRBF1:1,2015-01-07T16:00:00Z,25.0720,-80.7350,1.0,3.6,350.0,-9999.0,'1111122,1111122,1111122' 
ENP,ioos.station.NOAA.NDBC:WRBF1:1,2015-01-07T17:00:00Z,25.0720,-80.7350,1.0,2.1,330.0,-9999.0,'1111122,1111122,1111122' 
ENP,ioos.station.NOAA.NDBC:WRBF1:1,2015-01-07T18:00:00Z,25.0720,-80.7350,1.0,1.0,280.0,-9999.0,'1111122,1111122,1111122' 
ENP,ioos.station.NOAA.NDBC:WRBF1:1,2015-01-07T19:00:00Z,25.0720,-80.7350,1.0,2.1,220.0,-9999.0,'1111122,1111122,1111122' 
ENP,ioos.station.NOAA.NDBC:WRBF1:1,2015-01-07T20:00:00Z,25.0720,-80.7350,1.0,3.1,230.0,-9999.0,'1111122,1111122,1111122' 
ENP,ioos.station.NOAA.NDBC:WRBF1:1,2015-01-07T21:00:00Z,25.0720,-80.7350,1.0,4.6,240.0,-9999.0,'1111122,1111122,1111122' 
ENP,ioos.station.NOAA.NDBC:WRBF1:1,2015-01-07T22:00:00Z,25.0720,-80.7350,1.0,5.7,280.0,-9999.0,'1111122,1111122,1111122' 
ENP,ioos.station.NOAA.NDBC:WRBF1:1,2015-01-07T23:00:00Z,25.0720,-80.7350,1.0,7.2,300.0,-9999.0,'1111122,1111122,1111122' 
ENP,ioos.station.NOAA.NDBC:WRBF1:1,2015-01-08T00:00:00Z,25.0720,-80.7350,1.0,6.2,300.0,-9999.0,'1111122,1111122,1111122' 
ENP,ioos.station.NOAA.NDBC:WRBF1:1,2015-01-08T01:00:00Z,25.0720,-80.7350,1.0,6.7,300.0,-9999.0,'1111122,1111122,1111122' 
ENP,ioos.station.NOAA.NDBC:WRBF1:1,2015-01-08T02:00:00Z,25.0720,-80.7350,1.0,7.2,310.0,-9999.0,'1111122,1111122,1111122' 
ENP,ioos.station.NOAA.NDBC:WRBF1:1,2015-01-08T04:00:00Z,25.0720,-80.7350,1.0,7.2,330.0,-9999.0,'1111122,1111122,1111122' 
ENP,ioos.station.NOAA.NDBC:WRBF1:1,2015-01-08T05:00:00Z,25.0720,-80.7350,1.0,8.2,330.0,-9999.0,'1111122,1111122,1111122' 
ENP,ioos.station.NOAA.NDBC:WRBF1:1,2015-01-08T06:00:00Z,25.0720,-80.7350,1.0,9.8,330.0,-9999.0,'1111122,1111122,1111122' 
ENP,ioos.station.NOAA.NDBC:WRBF1:1,2015-01-08T07:00:00Z,25.0720,-80.7350,1.0,10.3,340.0,-9999.0,'1111122,1111122,1111122' 
ENP,ioos.station.NOAA.NDBC:WRBF1:1,2015-01-08T08:00:00Z,25.0720,-80.7350,1.0,10.3,340.0,-9999.0,'1111122,1111122,1111122' 
ENP,ioos.station.NOAA.NDBC:WRBF1:1,2015-01-08T09:00:00Z,25.0720,-80.7350,1.0,10.3,340.0,-9999.0,'1111122,1111122,1111122' 
ENP,ioos.station.NOAA.NDBC:WRBF1:1,2015-01-08T10:00:00Z,25.0720,-80.7350,1.0,11.3,350.0,-9999.0,'1111122,1111122,1111122' 
ENP,ioos.station.NOAA.NDBC:WRBF1:1,2015-01-08T11:00:00Z,25.0720,-80.7350,1.0,11.3,360.0,-9999.0,'1111122,1111122,1111122' 
ENP,ioos.station.NOAA.NDBC:WRBF1:1,2015-01-08T12:00:00Z,25.0720,-80.7350,1.0,11.8,360.0,-9999.0,'1111122,1111122,1111122' 
ENP,ioos.station.NOAA.NDBC:WRBF1:1,2015-01-08T13:00:00Z,25.0720,-80.7350,1.0,11.8,360.0,-9999.0,'1111122,1111122,1111122' 
ENP,ioos.station.NOAA.NDBC:WRBF1:1,2015-01-08T14:00:00Z,25.0720,-80.7350,1.0,11.8,360.0,-9999.0,'1111122,1111122,1111122' 
ENP,ioos.station.NOAA.NDBC:WRBF1:1,2015-01-08T15:00:00Z,25.0720,-80.7350,1.0,11.3,360.0,-9999.0,'1111122,1111122,1111122' 
ENP,ioos.station.NOAA.NDBC:WRBF1:1,2015-01-08T16:00:00Z,25.0720,-80.7350,1.0,9.8,360.0,-9999.0,'1111122,1111122,1111122' 
ENP,ioos.station.NOAA.NDBC:WRBF1:1,2015-01-08T17:00:00Z,25.0720,-80.7350,1.0,8.8,10.0,-9999.0,'1111122,1111122,1111122' 
ENP,ioos.station.NOAA.NDBC:WRBF1:1,2015-01-08T18:00:00Z,25.0720,-80.7350,1.0,8.2,10.0,-9999.0,'1111122,1111122,1111122' 
ENP,ioos.station.NOAA.NDBC:WRBF1:1,2015-01-08T19:00:00Z,25.0720,-80.7350,1.0,8.2,30.0,-9999.0,'1111122,1111122,1111122' 
ENP,ioos.station.NOAA.NDBC:WRBF1:1,2015-01-08T20:00:00Z,25.0720,-80.7350,1.0,8.8,40.0,-9999.0,'1111122,1111122,1111122' 
ENP,ioos.station.NOAA.NDBC:WRBF1:1,2015-01-08T21:00:00Z,25.0720,-80.7350,1.0,8.2,50.0,-9999.0,'1111122,1111122,1111122' 
ENP,ioos.station.NOAA.NDBC:WRBF1:1,2015-01-08T22:00:00Z,25.0720,-80.7350,1.0,8.2,40.0,-9999.0,'1111122,1111122,1111122' 
ENP,ioos.station.NOAA.NDBC:WRBF1:1,2015-01-08T23:00:00Z,25.0720,-80.7350,1.0,7.7,40.0,-9999.0,'1111122,1111122,1111122' 
ENP,ioos.station.NOAA.NDBC:WRBF1:1,2015-01-09T00:00:00Z,25.0720,-80.7350,1.0,6.2,50.0,-9999.0,'1111122,1111122,1111122' 
ENP,ioos.station.NOAA.NDBC:WRBF1:1,2015-01-09T01:00:00Z,25.0720,-80.7350,1.0,5.1,50.0,-9999.0,'1111122,1111122,1111122' 
ENP,ioos.station.NOAA.NDBC:WRBF1:1,2015-01-09T02:00:00Z,25.0720,-80.7350,1.0,3.6,50.0,-9999.0,'1111122,1111122,1111122' 
ENP,ioos.station.NOAA.NDBC:WRBF1:1,2015-01-09T04:00:00Z,25.0720,-80.7350,1.0,3.6,350.0,-9999.0,'1111122,1111122,1111122' 
ENP,ioos.station.NOAA.NDBC:WRBF1:1,2015-01-09T05:00:00Z,25.0720,-80.7350,1.0,3.6,350.0,-9999.0,'1111122,1111122,1111122' 
ENP,ioos.station.NOAA.NDBC:WRBF1:1,2015-01-09T06:00:00Z,25.0720,-80.7350,1.0,3.1,340.0,-9999.0,'1111122,1111122,1111122' 
ENP,ioos.station.NOAA.NDBC:WRBF1:1,2015-01-09T07:00:00Z,25.0720,-80.7350,1.0,3.1,350.0,-9999.0,'1111122,1111122,1111122' 
ENP,ioos.station.NOAA.NDBC:WRBF1:1,2015-01-09T08:00:00Z,25.0720,-80.7350,1.0,3.6,360.0,-9999.0,'1111122,1111122,1111122' 
ENP,ioos.station.NOAA.NDBC:WRBF1:1,2015-01-09T09:00:00Z,25.0720,-80.7350,1.0,3.1,350.0,-9999.0,'1111122,1111122,1111122' 
ENP,ioos.station.NOAA.NDBC:WRBF1:1,2015-01-09T10:00:00Z,25.0720,-80.7350,1.0,3.6,350.0,-9999.0,'1111122,1111122,1111122' 
ENP,ioos.station.NOAA.NDBC:WRBF1:1,2015-01-09T11:00:00Z,25.0720,-80.7350,1.0,3.6,20.0,-9999.0,'1111122,1111122,1111122' 
ENP,ioos.station.NOAA.NDBC:WRBF1:1,2015-01-09T12:00:00Z,25.0720,-80.7350,1.0,3.1,10.0,-9999.0,'1111122,1111122,1111122' 
ENP,ioos.station.NOAA.NDBC:WRBF1:1,2015-01-09T13:00:00Z,25.0720,-80.7350,1.0,3.1,40.0,-9999.0,'1111122,1111122,1111122' 
ENP,ioos.station.NOAA.NDBC:WRBF1:1,2015-01-09T14:00:00Z,25.0720,-80.7350,1.0,2.6,20.0,-9999.0,'1111122,1111122,1111122' 
ENP,ioos.station.NOAA.NDBC:WRBF1:1,2015-01-10T12:00:00Z,25.0720,-80.7350,1.0,7.7,10.0,-9999.0,'1111122,1111122,1111122' 
ENP,ioos.station.NOAA.NDBC:WRBF1:1,2015-01-14T15:00:00Z,25.0720,-80.7350,1.0,6.7,350.0,-9999.0,'1111122,1111122,1111122' 
ENP,ioos.station.NOAA.NDBC:WRBF1:1,2015-01-14T16:00:00Z,25.0720,-80.7350,1.0,6.2,360.0,-9999.0,'1111122,1111122,1111122' 
ENP,ioos.station.NOAA.NDBC:WRBF1:1,2015-01-14T17:00:00Z,25.0720,-80.7350,1.0,5.7,10.0,-9999.0,'1111122,1111122,1111122' 
ENP,ioos.station.NOAA.NDBC:WRBF1:1,2015-01-14T18:00:00Z,25.0720,-80.7350,1.0,4.1,360.0,-9999.0,'1111122,1111122,1111122' 
ENP,ioos.station.NOAA.NDBC:WRBF1:1,2015-01-14T19:00:00Z,25.0720,-80.7350,1.0,2.1,360.0,-9999.0,'1111122,1111122,1111122' 
ENP,ioos.station.NOAA.NDBC:WRBF1:1,2015-01-14T21:00:00Z,25.0720,-80.7350,1.0,3.1,350.0,-9999.0,'1111122,1111122,1111122' 
ENP,ioos.station.NOAA.NDBC:WRBF1:1,2015-01-14T22:00:00Z,25.0720,-80.7350,1.0,6.2,350.0,-9999.0,'1111122,1111122,1111122' 
ENP,ioos.station.NOAA.NDBC:WRBF1:1,2015-01-14T23:00:00Z,25.0720,-80.7350,1.0,7.2,360.0,-9999.0,'1111122,1111122,1111122' 
ENP,ioos.station.NOAA.NDBC:WRBF1:1,2015-01-15T00:00:00Z,25.0720,-80.7350,1.0,6.7,350.0,-9999.0,'1111122,1111122,1111122' 
ENP,ioos.station.NOAA.NDBC:WRBF1:1,2015-01-15T01:00:00Z,25.0720,-80.7350,1.0,7.2,350.0,-9999.0,'1111122,1111122,1111122' 
ENP,ioos.station.NOAA.NDBC:WRBF1:1,2015-01-15T02:00:00Z,25.0720,-80.7350,1.0,8.2,350.0,-9999.0,'1111122,1111122,1111122' 
ENP,ioos.station.NOAA.NDBC:WRBF1:1,2015-01-15T03:00:00Z,25.0720,-80.7350,1.0,7.2,360.0,-9999.0,'1111122,1111122,1111122' 
ENP,ioos.station.NOAA.NDBC:WRBF1:1,2015-01-15T04:00:00Z,25.0720,-80.7350,1.0,7.2,360.0,-9999.0,'1111122,1111122,1111122' 
ENP,ioos.station.NOAA.NDBC:WRBF1:1,2015-01-15T05:00:00Z,25.0720,-80.7350,1.0,6.7,360.0,-9999.0,'1111122,1111122,1111122' 
ENP,ioos.station.NOAA.NDBC:WRBF1:1,2015-01-15T06:00:00Z,25.0720,-80.7350,1.0,5.1,350.0,-9999.0,'1111122,1111122,1111122' 
ENP,ioos.station.NOAA.NDBC:WRBF1:1,2015-01-15T07:00:00Z,25.0720,-80.7350,1.0,4.6,350.0,-9999.0,'1111122,1111122,1111122' 
ENP,ioos.station.NOAA.NDBC:WRBF1:1,2015-01-15T08:00:00Z,25.0720,-80.7350,1.0,6.7,340.0,-9999.0,'1111122,1111122,1111122' 
ENP,ioos.station.NOAA.NDBC:WRBF1:1,2015-01-15T09:00:00Z,25.0720,-80.7350,1.0,6.7,340.0,-9999.0,'1111122,1111122,1111122' 
ENP,ioos.station.NOAA.NDBC:WRBF1:1,2015-01-15T10:00:00Z,25.0720,-80.7350,1.0,6.7,350.0,-9999.0,'1111122,1111122,1111122' 
ENP,ioos.station.NOAA.NDBC:WRBF1:1,2015-01-15T11:00:00Z,25.0720,-80.7350,1.0,5.7,350.0,-9999.0,'1111122,1111122,1111122' 
ENP,ioos.station.NOAA.NDBC:WRBF1:1,2015-01-15T12:00:00Z,25.0720,-80.7350,1.0,5.1,350.0,-9999.0,'1111122,1111122,1111122' 
ENP,ioos.station.NOAA.NDBC:WRBF1:1,2015-01-15T13:00:00Z,25.0720,-80.7350,1.0,5.7,350.0,-9999.0,'1111122,1111122,1111122' 
ENP,ioos.station.NOAA.NDBC:WRBF1:1,2015-01-15T14:00:00Z,25.0720,-80.7350,1.0,5.1,360.0,-9999.0,'1111122,1111122,1111122' 
ENP,ioos.station.NOAA.NDBC:WRBF1:1,2015-01-15T15:00:00Z,25.0720,-80.7350,1.0,5.1,10.0,-9999.0,'1111122,1111122,1111122' 
ENP,ioos.station.NOAA.NDBC:WRBF1:1,2015-01-15T16:00:00Z,25.0720,-80.7350,1.0,5.1,20.0,-9999.0,'1111122,1111122,1111122' 
ENP,ioos.station.NOAA.NDBC:WRBF1:1,2015-01-15T17:00:00Z,25.0720,-80.7350,1.0,4.1,340.0,-9999.0,'1111122,1111122,1111122' 
ENP,ioos.station.NOAA.NDBC:WRBF1:1,2015-01-15T18:00:00Z,25.0720,-80.7350,1.0,2.6,330.0,-9999.0,'1111122,1111122,1111122' 
ENP,ioos.station.NOAA.NDBC:WRBF1:1,2015-01-15T19:00:00Z,25.0720,-80.7350,1.0,0.5,270.0,-9999.0,'1111122,1111122,1111122' 
ENP,ioos.station.NOAA.NDBC:WRBF1:1,2015-01-15T20:00:00Z,25.0720,-80.7350,1.0,2.1,230.0,-9999.0,'1111122,1111122,1111122' 
ENP,ioos.station.NOAA.NDBC:WRBF1:1,2015-01-15T21:00:00Z,25.0720,-80.7350,1.0,2.6,240.0,-9999.0,'1111122,1111122,1111122' 
ENP,ioos.station.NOAA.NDBC:WRBF1:1,2015-01-15T22:00:00Z,25.0720,-80.7350,1.0,3.6,240.0,-9999.0,'1111122,1111122,1111122' 
ENP,ioos.station.NOAA.NDBC:WRBF1:1,2015-01-15T23:00:00Z,25.0720,-80.7350,1.0,4.6,260.0,-9999.0,'1111122,1111122,1111122' 
ENP,ioos.station.NOAA.NDBC:WRBF1:1,2015-01-16T00:00:00Z,25.0720,-80.7350,1.0,4.1,250.0,-9999.0,'1111122,1111122,1111122' 
ENP,ioos.station.NOAA.NDBC:WRBF1:1,2015-01-16T01:00:00Z,25.0720,-80.7350,1.0,4.1,290.0,-9999.0,'1111122,1111122,1111122' 
ENP,ioos.station.NOAA.NDBC:WRBF1:1,2015-01-16T02:00:00Z,25.0720,-80.7350,1.0,4.6,290.0,-9999.0,'1111122,1111122,1111122' 
ENP,ioos.station.NOAA.NDBC:WRBF1:1,2015-01-16T04:00:00Z,25.0720,-80.7350,1.0,3.6,310.0,-9999.0,'1111122,1111122,1111122' 
ENP,ioos.station.NOAA.NDBC:WRBF1:1,2015-01-16T05:00:00Z,25.0720,-80.7350,1.0,3.6,300.0,-9999.0,'1111122,1111122,1111122' 
ENP,ioos.station.NOAA.NDBC:WRBF1:1,2015-01-16T06:00:00Z,25.0720,-80.7350,1.0,3.6,310.0,-9999.0,'1111122,1111122,1111122' 
ENP,ioos.station.NOAA.NDBC:WRBF1:1,2015-01-16T07:00:00Z,25.0720,-80.7350,1.0,3.1,340.0,-9999.0,'1111122,1111122,1111122' 
ENP,ioos.station.NOAA.NDBC:WRBF1:1,2015-01-16T08:00:00Z,25.0720,-80.7350,1.0,3.6,340.0,-9999.0,'1111122,1111122,1111122' 
ENP,ioos.station.NOAA.NDBC:WRBF1:1,2015-01-16T09:00:00Z,25.0720,-80.7350,1.0,5.1,340.0,-9999.0,'1111122,1111122,1111122' 
ENP,ioos.station.NOAA.NDBC:WRBF1:1,2015-01-16T10:00:00Z,25.0720,-80.7350,1.0,5.1,340.0,-9999.0,'1111122,1111122,1111122' 
ENP,ioos.station.NOAA.NDBC:WRBF1:1,2015-01-16T11:00:00Z,25.0720,-80.7350,1.0,6.2,350.0,-9999.0,'1111122,1111122,1111122' 
ENP,ioos.station.NOAA.NDBC:WRBF1:1,2015-01-16T12:00:00Z,25.0720,-80.7350,1.0,6.7,360.0,-9999.0,'1111122,1111122,1111122' 
ENP,ioos.station.NOAA.NDBC:WRBF1:1,2015-01-16T13:00:00Z,25.0720,-80.7350,1.0,6.7,360.0,-9999.0,'1111122,1111122,1111122' 
ENP,ioos.station.NOAA.NDBC:WRBF1:1,2015-01-16T14:00:00Z,25.0720,-80.7350,1.0,8.2,360.0,-9999.0,'1111122,1111122,1111122' 
ENP,ioos.station.NOAA.NDBC:WRBF1:1,2015-01-16T15:00:00Z,25.0720,-80.7350,1.0,7.7,360.0,-9999.0,'1111122,1111122,1111122' 
ENP,ioos.station.NOAA.NDBC:WRBF1:1,2015-01-16T16:00:00Z,25.0720,-80.7350,1.0,5.7,10.0,-9999.0,'1111122,1111122,1111122' 
ENP,ioos.station.NOAA.NDBC:WRBF1:1,2015-01-16T17:00:00Z,25.0720,-80.7350,1.0,4.6,360.0,-9999.0,'1111122,1111122,1111122' 
ENP,ioos.station.NOAA.NDBC:WRBF1:1,2015-01-16T18:00:00Z,25.0720,-80.7350,1.0,3.6,350.0,-9999.0,'1111122,1111122,1111122' 
ENP,ioos.station.NOAA.NDBC:WRBF1:1,2015-01-16T19:00:00Z,25.0720,-80.7350,1.0,3.1,350.0,-9999.0,'1111122,1111122,1111122' 
ENP,ioos.station.NOAA.NDBC:WRBF1:1,2015-01-16T20:00:00Z,25.0720,-80.7350,1.0,5.1,350.0,-9999.0,'1111122,1111122,1111122' 
ENP,ioos.station.NOAA.NDBC:WRBF1:1,2015-01-16T21:00:00Z,25.0720,-80.7350,1.0,8.2,360.0,-9999.0,'1111122,1111122,1111122' 
ENP,ioos.station.NOAA.NDBC:WRBF1:1,2015-01-16T22:00:00Z,25.0720,-80.7350,1.0,8.8,360.0,-9999.0,'1111122,1111122,1111122' 
ENP,ioos.station.NOAA.NDBC:WRBF1:1,2015-01-16T23:00:00Z,25.0720,-80.7350,1.0,8.8,10.0,-9999.0,'1111122,1111122,1111122' 
ENP,ioos.station.NOAA.NDBC:WRBF1:1,2015-01-17T00:00:00Z,25.0720,-80.7350,1.0,7.7,10.0,-9999.0,'1111122,1111122,1111122' 
ENP,ioos.station.NOAA.NDBC:WRBF1:1,2015-01-17T01:00:00Z,25.0720,-80.7350,1.0,6.7,10.0,-9999.0,'1111122,1111122,1111122' 
ENP,ioos.station.NOAA.NDBC:WRBF1:1,2015-01-17T02:00:00Z,25.0720,-80.7350,1.0,6.2,10.0,-9999.0,'1111122,1111122,1111122' 
ENP,ioos.station.NOAA.NDBC:WRBF1:1,2015-01-17T03:00:00Z,25.0720,-80.7350,1.0,6.7,10.0,-9999.0,'1111122,1111122,1111122' 
ENP,ioos.station.NOAA.NDBC:WRBF1:1,2015-01-17T04:00:00Z,25.0720,-80.7350,1.0,5.1,20.0,-9999.0,'1111122,1111122,1111122' 
ENP,ioos.station.NOAA.NDBC:WRBF1:1,2015-01-17T05:00:00Z,25.0720,-80.7350,1.0,6.2,10.0,-9999.0,'1111122,1111122,1111122' 
ENP,ioos.station.NOAA.NDBC:WRBF1:1,2015-01-17T06:00:00Z,25.0720,-80.7350,1.0,7.7,360.0,-9999.0,'1111122,1111122,1111122' 
ENP,ioos.station.NOAA.NDBC:WRBF1:1,2015-01-17T07:00:00Z,25.0720,-80.7350,1.0,8.8,360.0,-9999.0,'1111122,1111122,1111122' 
ENP,ioos.station.NOAA.NDBC:WRBF1:1,2015-01-17T08:00:00Z,25.0720,-80.7350,1.0,8.2,360.0,-9999.0,'1111122,1111122,1111122' 
ENP,ioos.station.NOAA.NDBC:WRBF1:1,2015-01-17T09:00:00Z,25.0720,-80.7350,1.0,8.8,360.0,-9999.0,'1111122,1111122,1111122' 
ENP,ioos.station.NOAA.NDBC:WRBF1:1,2015-01-17T10:00:00Z,25.0720,-80.7350,1.0,8.2,350.0,-9999.0,'1111122,1111122,1111122' 
ENP,ioos.station.NOAA.NDBC:WRBF1:1,2015-01-17T11:00:00Z,25.0720,-80.7350,1.0,8.2,350.0,-9999.0,'1111122,1111122,1111122' 
ENP,ioos.station.NOAA.NDBC:WRBF1:1,2015-01-17T12:00:00Z,25.0720,-80.7350,1.0,8.2,350.0,-9999.0,'1111122,1111122,1111122' 
ENP,ioos.station.NOAA.NDBC:WRBF1:1,2015-01-17T13:00:00Z,25.0720,-80.7350,1.0,7.7,360.0,-9999.0,'1111122,1111122,1111122' 
ENP,ioos.station.NOAA.NDBC:WRBF1:1,2015-01-17T14:00:00Z,25.0720,-80.7350,1.0,7.2,360.0,-9999.0,'1111122,1111122,1111122' 
ENP,ioos.station.NOAA.NDBC:WRBF1:1,2015-01-17T15:00:00Z,25.0720,-80.7350,1.0,5.1,360.0,-9999.0,'1111122,1111122,1111122' 
ENP,ioos.station.NOAA.NDBC:WRBF1:1,2015-01-17T16:00:00Z,25.0720,-80.7350,1.0,5.1,20.0,-9999.0,'1111122,1111122,1111122' 
ENP,ioos.station.NOAA.NDBC:WRBF1:1,2015-01-17T17:00:00Z,25.0720,-80.7350,1.0,5.7,40.0,-9999.0,'1111122,1111122,1111122' 
ENP,ioos.station.NOAA.NDBC:WRBF1:1,2015-01-17T18:00:00Z,25.0720,-80.7350,1.0,5.7,40.0,-9999.0,'1111122,1111122,1111122' 
ENP,ioos.station.NOAA.NDBC:WRBF1:1,2015-01-17T19:00:00Z,25.0720,-80.7350,1.0,4.6,70.0,-9999.0,'1111122,1111122,1111122' 
ENP,ioos.station.NOAA.NDBC:WRBF1:1,2015-01-17T20:00:00Z,25.0720,-80.7350,1.0,4.6,70.0,-9999.0,'1111122,1111122,1111122' 
ENP,ioos.station.NOAA.NDBC:WRBF1:1,2015-01-17T21:00:00Z,25.0720,-80.7350,1.0,4.6,70.0,-9999.0,'1111122,1111122,1111122' 
ENP,ioos.station.NOAA.NDBC:WRBF1:1,2015-01-17T22:00:00Z,25.0720,-80.7350,1.0,4.1,70.0,-9999.0,'1111122,1111122,1111122' 
ENP,ioos.station.NOAA.NDBC:WRBF1:1,2015-01-17T23:00:00Z,25.0720,-80.7350,1.0,4.6,60.0,-9999.0,'1111122,1111122,1111122' 
ENP,ioos.station.NOAA.NDBC:WRBF1:1,2015-01-18T00:00:00Z,25.0720,-80.7350,1.0,3.6,60.0,-9999.0,'1111122,1111122,1111122' 
ENP,ioos.station.NOAA.NDBC:WRBF1:1,2015-01-18T01:00:00Z,25.0720,-80.7350,1.0,3.1,70.0,-9999.0,'1111122,1111122,1111122' 
ENP,ioos.station.NOAA.NDBC:WRBF1:1,2015-01-18T02:00:00Z,25.0720,-80.7350,1.0,2.6,60.0,-9999.0,'1111122,1111122,1111122' 
ENP,ioos.station.NOAA.NDBC:WRBF1:1,2015-01-18T04:00:00Z,25.0720,-80.7350,1.0,2.6,90.0,-9999.0,'1111122,1111122,1111122' 
ENP,ioos.station.NOAA.NDBC:WRBF1:1,2015-01-18T05:00:00Z,25.0720,-80.7350,1.0,1.5,80.0,-9999.0,'1111122,1111122,1111122' 
ENP,ioos.station.NOAA.NDBC:WRBF1:1,2015-01-18T06:00:00Z,25.0720,-80.7350,1.0,1.0,50.0,-9999.0,'1111122,1111122,1111122' 
ENP,ioos.station.NOAA.NDBC:WRBF1:1,2015-01-18T07:00:00Z,25.0720,-80.7350,1.0,1.0,30.0,-9999.0,'1111122,1111122,1111122' 
ENP,ioos.station.NOAA.NDBC:WRBF1:1,2015-01-18T08:00:00Z,25.0720,-80.7350,1.0,1.5,360.0,-9999.0,'1111122,1111122,1111122' 
ENP,ioos.station.NOAA.NDBC:WRBF1:1,2015-01-18T09:00:00Z,25.0720,-80.7350,1.0,1.5,10.0,-9999.0,'1111122,1111122,1111122' 
ENP,ioos.station.NOAA.NDBC:WRBF1:1,2015-01-18T10:00:00Z,25.0720,-80.7350,1.0,1.5,20.0,-9999.0,'1111122,1111122,1111122' 
ENP,ioos.station.NOAA.NDBC:WRBF1:1,2015-01-18T11:00:00Z,25.0720,-80.7350,1.0,1.0,50.0,-9999.0,'1111122,1111122,1111122' 
ENP,ioos.station.NOAA.NDBC:WRBF1:1,2015-01-18T12:00:00Z,25.0720,-80.7350,1.0,2.1,360.0,-9999.0,'1111122,1111122,1111122' 